Regional Weather Roundup
Issued by NWS Upton, NY

Current Version | Previous Version | Graphics & Text | Print | Product List | Glossary Off
Versions: 1 2 3 4 5 6 7 8 9 10 11 12 13 14 15 16 17 18 19 20 21 22 23 24 25 26 27 28 29 30 31 32 33 34 35 36 37 38 39 40 41 42 43 44 45 46

000
ASUS41 KOKX 270707
RWROKX

REGIONAL WEATHER ROUNDUP
NATIONAL WEATHER SERVICE NEW YORK NY
300 AM EDT MON APR 27 2015

NOTE: "FAIR" INDICATES FEW OR NO CLOUDS BELOW 12,000 FEET WITH NO
SIGNIFICANT WEATHER AND/OR OBSTRUCTIONS TO VISIBILITY.

NYZ071-072-176-178-NJZ106-104-270800-
NEW YORK CITY METRO AREA


CITY           SKY/WX    TMP DP  RH WIND       PRES   REMARKS
CENTRAL PARK   MOCLDY    50  29  44 NW5       29.70F
LAGUARDIA APRT MOCLDY    50  31  48 NW10      29.67F
KENNEDY INTL   MOCLDY    51  29  42 NW10      29.68F
NEWARK/LIBERTY PTCLDY    47  31  53 W7        29.68F
BRNX BOT. GARD   N/A     48  32  53 W7        29.67F
TETERBORO      CLOUDY    49  30  48 NW9       29.67F
$$

NYZ177-179-078>081-270800-
LONG ISLAND NEW YORK

CITY           SKY/WX    TMP DP  RH WIND       PRES   REMARKS
FARMINGDALE    CLOUDY    49  31  49 NW8       29.66F
ISLIP          CLOUDY    49  31  49 NW6       29.64F
SHIRLEY        CLOUDY    48  34  58 NW5       29.65F
WESTHAMPTON    CLOUDY    45  35  68 W5        29.66S
MONTAUK POINT    N/A     50  36  58 NW5       29.64S
$$

NYZ052-065-067-270800-
HUDSON VALLEY

CITY           SKY/WX    TMP DP  RH WIND       PRES   REMARKS
WHITE PLAINS   MOCLDY    48  32  53 NW8       29.65F
NEWBURGH       MOCLDY    45  34  65 NW5       29.68
MONTGOMERY     CLOUDY    47  31  53 NW8       29.67S
POUGHKEEPSIE   CLOUDY    47  34  60 CALM      29.67S
ALBANY         CLOUDY    45  33  63 W5        29.69S
$$

NJZ001-105-106-008-010-013-015-019>022-104-270800-
NEW JERSEY

CITY           SKY/WX    TMP DP  RH WIND       PRES   REMARKS
NEWARK/LIBERTY PTCLDY    47  31  53 W7        29.68F
TETERBORO      CLOUDY    49  30  48 NW9       29.67F
CALDWELL       MOCLDY    44  31  60 CALM      29.69F
MORRISTOWN     PTCLDY    48  28  46 NW3       29.69S
SOMERVILLE     MOCLDY    36  30  79 CALM      29.68F
SUSSEX         CLOUDY    46  29  51 VRB3      29.69F
ANDOVER          N/A     46  29  51 VRB5      29.69S
TRENTON        CLEAR     45  28  51 W3        29.70F
MILLVILLE      CLOUDY    39  35  86 CALM      29.71F
ATLANTIC CITY  CLEAR     43  33  68 CALM      29.71F
WRIGHTSTOWN    NOT AVBL
TOMS RIVER     CLEAR     36  28  75 W3        29.70F
BELMAR         CLEAR     41  27  56 W6        29.69S
$$

PAZ047>061-062-071-270800-
EASTERN PENNSYLVANIA

CITY           SKY/WX    TMP DP  RH WIND       PRES   REMARKS
PHILADELPHIA   PTCLDY    48  29  47 NW6       29.74S
ALLENTOWN      CLOUDY    41  29  62 W6        29.72F
SCRANTON       CLOUDY    44  30  57 N3        29.71F
$$

CTZ002-004>006-009-010-012-RIZ004-006-007-MAZ004-011-015-270800-
SOUTHERN NEW ENGLAND
 IN CT

CITY           SKY/WX    TMP DP  RH WIND       PRES   REMARKS
BRADLEY INTL   CLOUDY    49  32  52 NW5       29.63F
HARTFORD       CLOUDY    50  32  50 VRB5      29.64F
DANBURY        CLOUDY    48  29  47 N6        29.67S
WTRBRY/OXFORD  CLOUDY    46  30  53 NW7       29.66S
BRIDGEPORT     CLOUDY    51  32  48 NW3       29.65S
MERIDEN        CLOUDY    50  31  48 N5        29.64F
NEW HAVEN      CLOUDY    50  32  50 N7        29.64F
CHESTER        CLOUDY    48  32  53 N7        29.63F
GROTON         CLOUDY    51  32  48 NW8       29.62S
WILLIMANTIC    CLOUDY    50  33  52 CALM      29.63F

 IN RI

CITY           SKY/WX    TMP DP  RH WIND       PRES   REMARKS
PROVIDENCE     CLOUDY    50  31  48 NW5       29.61F
BLOCK ISLAND   CLOUDY    48  32  53 NW6       29.62S
WESTERLY       CLOUDY    50  32  50 NW5       29.62F

 IN MA

CITY           SKY/WX    TMP DP  RH WIND       PRES   REMARKS
BOSTON         MOCLDY    48  33  56 NW7       29.61S
WORCESTER      CLOUDY    45  31  58 NW9       29.61F
WESTFIELD      CLOUDY    49  32  52 NW7       29.63F
PROVINCETOWN   CLOUDY   N/A N/A N/A NW7       29.59S
NANTUCKET      PTCLDY    43  39  86 NW7       29.58F
$$

ANZ330-335-338-340-345-350-353-355-270800-
COASTAL MARINE OBSERVATIONS


STATION/POSITION TIME  SKY/WX   TEMP    WIND        PRES    VSBY  WAVE
                                AIR SEA DIR/SP/G                  HT/PER
                 (UTC)          (F)     (DEG/KT/KT) (MB)    (MI)  (FT/S)
NY HARB ENTRANCE 0650            47 45  280/  6/  8 1004.5          1/11
4S FIRE IS       0603               45                N/A           2/ 9
20S FIRE ISLAND  0650            46 44  290/ 10/ 10 1004.4          2/ 3
23SW MTP         0650            45 43  270/  8/  8 1003.2          2/10
HUDSON CANYON    NOT AVBL
EXECUTION ROCKS  NOT AVBL
WESTERN LI SOUND NOT AVBL
CENTRAL LI SOUND NOT AVBL
EASTERN LI SOUND 0600            49     350/  6/  8   N/A
ROBBINS REEF     0606            50     290/  6/  9 1004.1
$$


>>>>>>>>>>>>>>>>>>>>>>>>>>>> KEY <<<<<<<<<<<<<<<<<<<<<<<<<<<
>                                                          <
>     SKY/WX - SKY CONDITION/PRESENT WEATHER               <
>     TMP    - TEMPERATURE IN FAHRENHEIT                   <
>     DP     - DEWPOINT IN FAHRENHEIT                      <
>     RH     - RELATIVE HUMIDITY IN PERCENT                <
>     WIND   - DIRECTION AND SPEED IN MPH                  <
>     PRES   - MEAN SEA LEVEL PRESSURE IN INCHES OF HG     <
>     WCI    - WIND CHILL INDEX                            <
>     VSB    - VISIBILITY IN MILES                         <
>     HX     - HEAT INDEX                                  <
>     TC     - TEMPERATURE IN CELSIUS                      <
>     VRB    - VARIABLE WIND DIRECTION                     <
>                                                          <
>>>>>>>>>>>>>>>>>>>>>>>>>>>> KEY <<<<<<<<<<<<<<<<<<<<<<<<<<<





USA.gov is the U.S. government's official web portal to all federal, state and local government web resources and services.